Location: The Saddle
(36.8333°N, 80.3417°W)
Time: 00:32:53
(UTC-04:00)

SEEDS - Pass Details

Date: 22 March 2026
Orbit: 470 x 477 km, 97.8° (Epoch: 20 April)

Event Time Altitude Azimuth Distance (km) Brightness Sun altitude
Rises 06:35:38 0° 13° (NNE) 2,539 ? -10.1°
Reaches altitude 10° 06:37:42 10° 16° (NNE) 1,654 ? -9.6°
Maximum altitude 06:41:16 76° 102° (ESE) 495 ? -8.9°
Drops below altitude 10° 06:44:46 10° 188° (S) 1,634 ? -8.2°
Sets 06:46:48 0° 190° (S) 2,505 ? -7.8°
